Погода в Роли

США     35°51′00″N   78°40′40″W
темп.,
°C
ветер,
м/с
пор.,
м/с
влажн.,
%
обл.,
%
осадки,
мм/ч
давл.,
гПа
погр.,
м
16 октября, сб
сб1623:00+21ю36685 0.0 1013150
02:00+19ю38873 0.0 1012216
05:00+18ю389410 0.0 1011240
08:00+18ююз37948 0.0 1011232
11:00+26юз611620 0.0 10091121
14:00+29юз6104698 0.0 10062172
17:00+18ссз51290100 1.6 1009842
20:00+17ссз4117454 1.7 1013738
17 октября, вс
вс1723:00+15ссз612560 0.0 10161034
02:00+13ссз511560 0.0 1017851
05:00+11сз412620 0.0 1017671
08:00+10сз311650 0.0 1018505
11:00+15ссз58420 0.0 10191237
14:00+18сз58340 0.0 10171755
17:00+19сз48340 0.0 10161981
20:00+13сз310470 0.0 1018277
18 октября, пн
пн1823:00+11сз38550 0.0 1020216
02:00+10зсз39590 0.0 1020194
05:00+9зсз310640 0.0 1021202
08:00+9зсз39680 0.0 1021203
11:00+16сз47450 0.0 1021735
14:00+21зсз47320 0.0 10191382
17:00+21зсз36340 0.0 10181112
20:00+15з23530 0.0 102047
19 октября, вт
вт1923:00+13сз25530 0.0 1021105
02:00+12сз23570 0.0 102269
05:00+11ссз23600 0.0 102254
08:00+11сз12630 0.0 102438
11:00+18зсз12430 0.0 1024471
14:00+22зюз23320 0.0 10221124
17:00+22юз24370 0.0 1021801
20:00+16юз245389 0.0 102269
20 октября, ср
ср2023:00+15юз2453100 0.0 102276
02:00+14зюз375798 0.0 1022144
05:00+13з376342 0.0 1023140
08:00+12з26700 0.0 1023130
11:00+20з34460 0.0 1024423
14:00+24з23310 0.0 10221173
17:00+24зюз23350 0.0 1020632
20:00+18юз2354100 0.0 102144